Flag for Kazakhstan Weather past 2 weeks in Almaty, Kazakhstan

79 °F

Partly sunny.

Feels Like: 78 °F
Forecast: 58 / 76 °F
Wind: 1 mph from North

Location: Almaty Airport

Current Time: Oct 10, 2015 at 1:18:05 PM

Latest Report: Oct 10, 2015 at 1:00 PM

Visibility: N/A

Pressure: 29.83 "Hg (27.26 "Hg at 790m altitude)

Humidity: 20%

Dew point: 34 °F

Location of AlmatyLocation

Historic Weather in Almaty — Graph


Almaty temperature yesterday

Maximum temperature yesterday: 88 °F (at 1:30 PM)
Minimum temperature yesterday: 52 °F (at 4:30 AM)
Average temperature yesterday: 68 °F

Past Weeks' High & Low Weather Summary

High88 °F (Oct 9, 1:30 PM)87% (Sep 26, 4:30 AM)30.54 "Hg (Sep 26, 4:30 AM)
Low27 °F (Sep 29, 6:30 AM)8% (Oct 8, 3:30 PM)29.86 "Hg (Oct 10, 11:30 AM)
Average57 °F40%30.14 "Hg
* Reported Sep 25 12:00 Noon — Oct 10 12:00 Noon, Almaty, Weather by CustomWeather, © 2015

Note: Actual official high and low records may vary slightly from our data, if they occured in-between our weather recording intervals... More about our weather records


Almaty weather history for previous 24 hours

Time TempWeatherWind HumidityBarometerVisibility
12:00 PM
Sat, Oct 10
77 °FScattered clouds.1 mph21%29.86 "HgN/A
11:30 AM75 °FScattered clouds.1 mph24%29.86 "HgN/A
11:00 AM73 °FScattered clouds.1 mph25%29.89 "HgN/A
10:30 AM72 °FPartly sunny.6 mph29%29.89 "HgN/A
10:00 AM72 °FPartly sunny.6 mph27%29.89 "HgN/A
9:30 AM70 °FPartly sunny.6 mph29%29.92 "HgN/A
9:00 AM70 °FScattered clouds.6 mph29%29.92 "HgN/A
8:30 AM68 °FScattered clouds.6 mph28%29.92 "HgN/A
8:00 AM66 °FScattered clouds.6 mph30%29.92 "HgN/A
7:30 AM64 °FPartly sunny.8 mph30%29.92 "HgN/A
7:00 AM64 °FScattered clouds.6 mph28%29.95 "HgN/A
6:30 AM57 °FPassing clouds.6 mph41%29.95 "HgN/A
6:00 AM55 °FPassing clouds.1 mph44%29.92 "HgN/A
5:30 AM54 °FPassing clouds.3 mph51%29.92 "HgN/A
5:00 AM54 °FPassing clouds.No wind51%29.92 "HgN/A
4:30 AM55 °FPassing clouds.1 mph44%29.92 "HgN/A
4:00 AM54 °FPassing clouds.3 mph51%29.92 "HgN/A
3:30 AM54 °FPassing clouds.1 mph51%29.92 "HgN/A
3:00 AM55 °FPassing clouds.3 mph47%29.92 "HgN/A
2:30 AM55 °FPassing clouds.3 mph47%29.92 "HgN/A
2:00 AM55 °FPassing clouds.1 mph47%29.92 "HgN/A
1:30 AM57 °FPassing clouds.3 mph44%29.92 "HgN/A
1:00 AM57 °FPassing clouds.3 mph44%29.92 "HgN/A
12:30 AM57 °FPassing clouds.1 mph44%29.92 "HgN/A
12:00 AM57 °FPassing clouds.No wind44%29.92 "HgN/A
11:30 PM
Fri, Oct 9
57 °FPassing clouds.1 mph44%29.95 "HgN/A
11:00 PM59 °FPassing clouds.1 mph42%29.95 "HgN/A
10:30 PM61 °FPassing clouds.1 mph36%29.95 "Hg3 mi
10:00 PM64 °FPassing clouds.3 mph30%29.92 "Hg3 mi
9:30 PM64 °FPassing clouds.3 mph32%29.92 "Hg2 mi
8:30 PM64 °FPassing clouds.3 mph34%29.92 "Hg1 mi
8:00 PM66 °FPassing clouds.3 mph35%29.92 "Hg2 mi
7:30 PM66 °FPartly cloudy.1 mph35%29.92 "Hg1 mi
7:00 PM70 °FPassing clouds.1 mph31%29.92 "Hg3 mi
6:30 PM73 °FPassing clouds.3 mph25%29.89 "HgN/A
6:00 PM77 °FPartly sunny.3 mph19%29.89 "HgN/A
5:30 PM81 °FPartly sunny.6 mph16%29.89 "HgN/A
5:00 PM84 °FPartly sunny.8 mph13%29.89 "HgN/A
4:30 PM86 °FPartly sunny.8 mph11%29.89 "HgN/A
4:00 PM86 °FPartly sunny.10 mph11%29.89 "HgN/A
3:30 PM88 °FPartly sunny.8 mph11%29.89 "HgN/A
3:00 PM88 °FPartly sunny.8 mph11%29.89 "HgN/A
2:30 PM88 °FPartly sunny.8 mph10%29.89 "HgN/A
2:00 PM88 °FPartly sunny.8 mph10%29.89 "HgN/A
1:30 PM88 °FScattered clouds.6 mph10%29.89 "HgN/A
1:00 PM86 °FScattered clouds.6 mph11%29.89 "HgN/A
Weather by CustomWeather, © 2015

See weather overviewHow to use our weather pages